Location: Newark
(14.1000°N, 87.2167°W)
Time: 09:27:38
(UTC+00:00)

Hubble Space Telescope - Pass Details

Date: 27 July 2019
Orbit: 536 x 540 km, 28.5° (Epoch: 20 August)

Event Time Altitude Azimuth Distance (km) Brightness Sun altitude
Exits shadow 10:16:43 15° 308° (NW) 1,506 2.8 -17.6°
Maximum altitude 10:18:42 20° 343° (NNW) 1,270 2.7 -17.2°
Drops below altitude 10° 10:21:46 10° 32° (NNE) 1,778 4.3 -16.5°
Sets 10:24:30 0° 49° (NE) 2,668 5.9 -15.9°
